sat.trackr.live / text

‹ back to catalog

TRANSPORTER-15 OBJECT H

NORAD 66673 · 2025-276H

PAYLOAD ACTIVE UNKNOWN

§ Identity

Operator
Country
TBD
Launch date
2025-11-28
Launch site
AFWTR
Launch vehicle
Mass (kg)
RCS (m²)

External: N2YO · Heavens-Above · Gunter

§ Orbital elements

Epoch: 2026-05-24T15:22:08.749920Z

Period
94.60 min
Inclination
97.4164°
Eccentricity
0.0007750
Mean motion
15.22236975 rev/d
Perigee alt
493.8 km
Apogee alt
504.4 km
Semi-major
6,877.2 km
B*
6.3674e-4
RAAN
218.7610°
Arg perigee
100.5124°
Mean anomaly
259.6986°
Rev number
2,686

§ Raw data

TRANSPORTER-15 OBJECT H1 66673U 25276H   26144.64037905  .00014598  00000+0  63674-3 0  99962 66673  97.4164 218.7610 0007750 100.5124 259.6986 15.22236975 26867

JSON: /api/v1/satellites/66673 · /tle

For live sub-satellite position, see the globe view (requires WebGL).

§ Visibility from observer

Set your observer location to see the next 7 days of passes ≥ 10°. The values pass through the URL so the page stays shareable.

No JS? Fill the form by hand. The geolocation button needs JavaScript.

§ Radio — SatNOGS DB

ModeDescriptionDownlinkUplink
FSK Mode S - FSK400k - Transmitter 2.210 GHz 2.108 GHz
FSK Mode U - FSK50k - Telemetry 400.600 MHz 401.250 MHz

2 transmitters · refreshed weekly from db.satnogs.org